Regional Weather Roundup
Issued by NWS

Home | Current Version | Previous Version | Text Only | Print | Product List | Glossary Off
Versions: 1 2 3 4 5 6 7 8 9 10 11 12 13 14 15 16 17 18 19 20 21 22 23 24 25 26 27 28 29 30 31 32 33 34 35 36 37 38 39 40 41 42 43 44 45 46 47 48 49 50

000
ASUS43 KMKX 210510
RWRWI

WISCONSIN REGIONAL WEATHER ROUNDUP
NATIONAL WEATHER SERVICE MILWAUKEE/SULLIVAN WI
1200 AM CDT SAT APR 21 2018

NOTE: "FAIR" INDICATES FEW OR NO CLOUDS BELOW 12,000 FEET WITH NO
SIGNIFICANT WEATHER AND/OR OBSTRUCTIONS TO VISIBILITY.

WIZ001-002-006>008-014>016-023>028-210600-
NORTHWEST WISCONSIN

CITY           SKY/WX    TMP DP  RH WIND       PRES   REMARKS
SUPERIOR ARPT  FAIR      40  20  45 SW5       30.42R
ASHLAND        FAIR      40  20  44 SW8       30.42S WCI  34
HAYWARD        FAIR      29  20  69 CALM      30.43S
SIREN          FAIR      32  22  67 CALM      30.43S
CUMBERLAND     FAIR      32  19  59 CALM      30.43S
RICE LAKE      FAIR      31  26  80 CALM      30.45S
CHETEK         FAIR      31  24  76 CALM      30.43F
LADYSMITH      FAIR      32  26  78 CALM      30.44S
EAU CLAIRE     FAIR      34  22  61 CALM      30.43S
MENOMONIE      FAIR      38  23  54 CALM      30.44S
NEW RICHMOND   FAIR      34  27  75 CALM      30.44F
OSCEOLA        FAIR      33  26  77 CALM      30.46F
$$

WIZ003>005-009-010-017-018-210600-
NORTH CENTRAL WISCONSIN

CITY           SKY/WX    TMP DP  RH WIND       PRES   REMARKS
MANITOWISH WTR FAIR      31  22  67 CALM      30.40S
ARBOR VITAE    FAIR      32  20  60 CALM      30.41S
WOODRUFF       FAIR      32  20  60 CALM      30.41S
RHINELANDER    FAIR      35  18  49 CALM      30.42R
EAGLE RIVER    FAIR      30  19  63 CALM      30.40S
LAND O LAKES   FAIR      28  18  67 CALM      30.42S
PHILLIPS       FAIR      29  23  79 CALM      30.41S
TOMAHAWK       FAIR      27  18  69 CALM      30.42S
MEDFORD        FAIR      31  21  65 CALM      30.42S
MERRILL          N/A     28  21  73 CALM      30.43S
$$

WIZ029-030-035-036-043>047-210600-
CENTRAL WISCONSIN

CITY           SKY/WX    TMP DP  RH WIND       PRES   REMARKS
WAUSAU         FAIR      32  21  64 CALM      30.41S
MOSINEE        FAIR      36  16  44 CALM      30.43S
MARSHFIELD     FAIR      37  19  48 N5        30.41S WCI  33
STEVENS POINT  FAIR      28  18  65 CALM      30.43F
WAUPACA        FAIR      33  25  71 CALM      30.44S
WAUTOMA        FAIR      29  24  82 CALM      30.45S
WISC RAPIDS    FAIR      32  18  56 CALM      30.43F
CAMP DOUGLAS   FAIR      30  23  75 CALM      30.43S
$$

WIZ011>013-019>022-031-037>040-048>050-210600-
NORTHEAST WISCONSIN

CITY           SKY/WX    TMP DP  RH WIND       PRES   REMARKS
ANTIGO         FAIR      33  18  52 CALM      30.42R
SHAWANO        FAIR      35  22  59 CALM      30.43R
OCONTO         FAIR      29  21  70 CALM      30.43S
STURGEON BAY   FAIR      41  24  51 S3        30.44S
GREEN BAY      FAIR      32  25  75 CALM      30.44S
MANITOWOC      FAIR      31  27  85 CALM      30.45S
APPLETON       FAIR      36  18  48 SW3       30.42R
CLINTONVILLE   FAIR      37  18  45 W5        30.43S WCI  33
OSHKOSH        FAIR      38  18  44 SW5       30.43S WCI  34
$$

WIZ032>034-041-042-053>061-210600-
SOUTHWEST WISCONSIN

CITY           SKY/WX    TMP DP  RH WIND       PRES   REMARKS
LA CROSSE      FAIR      42  30  62 CALM      30.44S
SPARTA         FAIR      30  23  75 CALM      30.45S
VIROQUA        FAIR      42  26  52 NE5       30.42F
BOSCOBEL       FAIR      35  30  82 CALM      30.44R
PRAIRIE DU CHI FAIR      40  31  69 CALM      30.42F
PLATTEVILLE    FAIR      42  29  60 E5        30.41S
$$

WIZ056-057-062-063-064-067-068-210600-
SOUTH CENTRAL WISCONSIN

CITY           SKY/WX    TMP DP  RH WIND       PRES   REMARKS
REEDSBURG      FAIR      34  26  73 CALM      30.44S
BARABOO/DELLS  FAIR      33  22  65 CALM      30.43F
LONE ROCK      FAIR      36  32  85 CALM      30.43F
MINERAL POINT  FAIR      43  28  56 E5        30.41S
MADISON        FAIR      33  26  75 CALM      30.44R
MIDDLETON      FAIR      34  32  92 CALM      30.44S
WATERTOWN      FAIR      32  23  69 CALM      30.45R
MONROE         FAIR      43  27  52 E5        30.42S
JANESVILLE     FAIR      41  28  60 E3        30.44S
$$

WIZ051-052-058>065-066-070>072-210600-
SOUTHEAST WISCONSIN

CITY           SKY/WX    TMP DP  RH WIND       PRES   REMARKS
MILWAUKEE      FAIR      40  17  39 CALM      30.45S
WAUKESHA       FAIR      32  21  64 CALM      30.46S
MILWAUKEE/TIMM FAIR      34  21  60 CALM      30.46S
RACINE         FAIR      34  25  69 CALM      30.46S HAZE
BURLINGTON     FAIR      31  24  75 CALM      30.45S
KENOSHA        FAIR      36  19  50 W3        30.45R
FOND DU LAC    FAIR      31  21  66 CALM      30.44S
SHEBOYGAN      FAIR      32  28  85 CALM      30.44S
WEST BEND      FAIR      32  28  86 CALM      30.45R
JUNEAU         FAIR      38  21  51 CALM      30.45S
$$

LSZ147-162-210600-
LAKE SUPERIOR

STATION/POSITION TIME  TEMP    WIND        PRES    WAVE
                       AIR SEA DIR/SP/G            HT/PER
                 (UTC) (F)     (DEG/KT/KT) (MB)    (FT/S)
DEVILS ISLAND    0500   47     220/  3/  4 1030.2R
SAXON HARBOR     0440   32     190/  3/  4 1029.1S
$$

LMZ867-665-643>646-210600-
LAKE MICHIGAN

STATION/POSITION TIME  TEMP    WIND        PRES    WAVE
                       AIR SEA DIR/SP/G            HT/PER
                 (UTC) (F)     (DEG/KT/KT) (MB)    (FT/S)
NORTHPORT PIER   0440   33                 1030.5S
KEWAUNEE LAKESHO 0442   33     310/  2/  2 1029.8R
SHEBOYGAN LAKESH 0500   41     230/  3/  4 1031.5R
PORT WASHINGTON  0430   36     300/  2/  4 1031.8R
MILWAUKEE LAKESH 0430   44     230/  4/  5   N/A
KENOSHA   LAKESH 0500   42                 1031.2
$$

TC  - TEMPERATURE IN CELSIUS
VSB - VISIBILITY IN STATUTE MILES
WCI - WIND CHILL INDEX
HX  - HEAT INDEX





USA.gov is the U.S. government's official web portal to all federal, state and local government web resources and services.